Погода в Калах

Россия / Республика Хакасия     53°04′36″N   91°17′16″E
темп.,
°C
ветер,
м/с
пор.,
м/с
влажн.,
%
обл.,
%
осадки,
мм/ч
давл.,
гПа
погр.,
м
25 января, вт
вт2501:00−17ю229312 0.0 104024
04:00−18ю229278 0.0 103925
07:00−18ююз229177 0.0 103830
10:00−16ю238595 0.0 103662
13:00−10с017317 0.0 1032213
16:00−11с1189100 0.0 103130
19:00−13ююз1195100 0.0 103210
22:00−11ююз1193100 0.0 103223
26 января, ср
ср2601:00−11ю2188100 0.0 103130
04:00−13ю228799 0.0 103228
07:00−15ю228899 0.0 103221
10:00−13ююз1281100 0.0 103151
13:00−9с0170100 0.0 1028193
16:00−10с1085100 0.0 102980
19:00−11ю1192100 0.0 103014
22:00−11ю2288100 0.0 103125
27 января, чт
чт2701:00−12ююз2187100 0.0 103124
04:00−13ююз2186100 0.0 103226
07:00−13ююз2182100 0.0 103428
10:00−12ююз2378100 0.0 103668
13:00−8зсз246752 0.0 1035798
16:00−9сз128081 0.0 1036123
19:00−15ююз229073 0.0 103918
22:00−15ююз328784 0.0 104023
28 января, пт
пт2801:00−17ю32867 0.0 104020
04:00−18ю328810 0.0 104022
07:00−19ю229047 0.0 104122
10:00−17ю22875 0.0 104041
13:00−12ссв118023 0.0 1037286
16:00−14ссв129795 0.0 1038132
19:00−20ю2110096 0.0 103910
22:00−21ю219870 0.0 103911
29 января, сб
сб2901:00−21ююз219688 0.0 103912
04:00−21ююз229565 0.0 103817
07:00−22ююз229326 0.0 103916
10:00−20ююз118612 0.0 103944
13:00−15ссв118019 0.0 1037239
16:00−16ссв119588 0.0 1037114
19:00−22ю219924 0.0 10409
22:00−22ю219414 0.0 104012